Regional Weather Roundup
Issued by NWS

Home | Current Version | Previous Version | Graphics & Text | Print | Product List | Glossary On
Versions: 1 2 3 4 5 6 7 8 9 10 11 12 13 14 15 16 17 18 19 20 21 22 23 24 25 26 27
000
ASUS45 KSLC 020910
RWRUT

UTAH REGIONAL WEATHER ROUNDUP
NATIONAL WEATHER SERVICE SALT LAKE CITY UT
300 AM MDT MON MAY 02 2016

UTZ001>011-023>025-021000-

NORTHERN UTAH

CITY           SKY/WX    TMP DP  RH WIND       PRES   REMARKS
BRIGHAM CITY   CLEAR     49  23  35 E22G28    30.15F
HILL AFB       CLEAR     46  26  45 E15G23    30.14R
LOGAN          CLEAR     46  25  43 VRB5G17   30.18R
OGDEN          CLEAR     47  26  44 E9        30.13R
PROVO AIRPORT  PTCLDY    46  28  49 SW5       30.13S
SALT LAKE CITY PTCLDY    50  28  42 SE9       30.12S
VERNAL         CLEAR     33  24  69 W5        30.19S WCI  29
WENDOVER       PTCLDY    43  34  70 CALM      30.13S
HEBER CITY     CLEAR     37  28  70 CALM      30.18S

$$

UTZ012>022-026-027-021000-

SOUTHERN/CENTRAL UTAH

CITY           SKY/WX    TMP DP  RH WIND       PRES   REMARKS
BLANDING       CLOUDY    43  39  87 E3        30.27R
BRYCE CANYON   CLEAR     33  29  85 SE6       30.19S WCI  28
CEDAR CITY     CLOUDY    41  38  89 SW5       30.12S
DELTA          CLOUDY    41  36  81 SW7       30.12S
HANKSVILLE     CLOUDY    48  37  66 CALM      30.16S
MILFORD        CLOUDY    49  36  61 N7        30.12S
MOAB/CYNLANDS  CLOUDY    48  39  71 NE3       30.14S
PRICE          CLOUDY    43  27  53 CALM      30.17R
ST GEORGE      SUNNY     54  41  62 SE7       30.10S
KANAB          CLOUDY    48  39  71 N5        30.18

$$

REGIONAL REPORTS     COLORADO/ARIZONA

CITY           SKY/WX    TMP DP  RH WIND       PRES   REMARKS
CRAIG, CO      CLOUDY    32  23  69 W7        30.21R WCI  26
GRAND JUNCTION CLOUDY    46  39  76 SE10      30.17S
RIFLE          CLOUDY    45  40  82 CALM      30.18S
MONTROSE       CLOUDY    42  38  85 SE5       30.22S
CORTEZ         CLOUDY    42  35  76 SE6       30.21S
PAGE, AZ       CLOUDY    51  42  71 CALM      30.13S
GRAND CANYON   CLEAR     37  31  78 CALM      30.17S
KINGMAN        CLEAR     54  32  43 SE14      30.05S
FLAGSTAFF      MOCLDY    30  29  96 CALM      30.16F FOG

$$

REGIONAL REPORTS    NEVADA/IDAHO/WYOMING

CITY           SKY/WX    TMP DP  RH WIND       PRES   REMARKS
LAS VEGAS, NV  PTCLDY    61  43  51 SW6       29.96S
ELY            CLEAR     31  28  89 S5        30.17S WCI  26
ELKO           CLEAR     39  30  70 CALM      30.13S
POCATELLO, ID  CLEAR     40  30  67 VRB7      30.17S
BURLEY         CLEAR     39  33  79 NW6       30.13R WCI  35
EVANSTON, WY   CLEAR     31  22  69 E9        30.23S WCI  23
ROCK SPRINGS   CLEAR     28  21  75 NE6       30.25F WCI  22
KEMMERER         N/A     30  23  74 E10       30.26S WCI  21

$$




USA.gov is the U.S. government's official web portal to all federal, state and local government web resources and services.